Location: Ch�risy
(50.2331°N, 2.9131°E)
Time: 23:46:05
(UTC+00:00)

ERS-2 - Pass Details

Date: 17 January 2021
Orbit: 492 x 497 km, 98.6° (Epoch: 01 March)

Event Time Altitude Azimuth Distance (km) Brightness Sun altitude
Exits shadow 17:11:58 12° 64° (ENE) 1,605 4.0 -8.6°
Maximum altitude 17:13:32 14° 91° (E) 1,452 3.9 -8.8°
Drops below altitude 10° 17:15:32 10° 125° (SE) 1,689 4.5 -9.1°
Sets 17:18:25 0° 151° (SSE) 2,563 5.7 -9.5°
